Orbital elements of COSMOS 970 DEB
| Launched | 20 December 1977 |
| Flight ended | – |
| Launch site | Tyuratam Missile and Space Center, Kazakhstan (Also known as Baikonur Cosmodrome) |
| Owner | Commonwealth of Independent States (former USSR) |
| NORAD ID | 10576 |
| Date fetched |
Epoch osculation |
Inc. [°] |
Ecc. | RA asc node [hr] |
Arg Peri. [°] |
Mean anom [°] |
Mean motion [rev/day] |
Abs. mag |
| Date fetched |
Epoch osculation |
Inc. [°] |
Ecc. | RA asc node [hr] |
Arg Peri. [°] |
Mean anom [°] |
Mean motion [rev/day] |
Abs. mag |
| 2026 May 03 17:57 | 2026 Apr 30 14:09:34 | 65.8377 | 0.01417 | 20.2788 | 208.9117 | 216.3816 | 13.66847 | – |
| 2026 May 02 17:57 | 2026 Apr 30 14:09:34 | 65.8377 | 0.01417 | 20.2788 | 208.9117 | 216.3816 | 13.66847 | – |
| 2026 May 01 17:56 | 2026 Apr 30 14:09:34 | 65.8377 | 0.01417 | 20.2788 | 208.9117 | 216.3816 | 13.66847 | – |
| 2026 Apr 30 17:56 | 2026 Apr 30 14:09:34 | 65.8377 | 0.01417 | 20.2788 | 208.9117 | 216.3816 | 13.66847 | – |
| 2026 Apr 29 17:57 | 2026 Apr 24 00:33:04 | 65.8380 | 0.01421 | 21.3458 | 212.0166 | 216.3816 | 13.66847 | – |
| 2026 Apr 28 17:56 | 2026 Apr 24 00:33:04 | 65.8380 | 0.01421 | 21.3458 | 212.0166 | 216.3816 | 13.66847 | – |
| 2026 Apr 27 17:58 | 2026 Apr 24 00:33:04 | 65.8380 | 0.01421 | 21.3458 | 212.0166 | 216.3816 | 13.66847 | – |
| 2026 Apr 26 17:58 | 2026 Apr 24 00:33:04 | 65.8380 | 0.01421 | 21.3458 | 212.0166 | 216.3816 | 13.66847 | – |
| 2026 Apr 25 17:58 | 2026 Apr 24 00:33:04 | 65.8380 | 0.01421 | 21.3458 | 212.0166 | 216.3816 | 13.66847 | – |
| 2026 Apr 24 17:59 | 2026 Apr 24 00:33:04 | 65.8380 | 0.01421 | 21.3458 | 212.0166 | 216.3816 | 13.66847 | – |
| 2026 Apr 23 17:57 | 2026 Apr 19 08:17:34 | 65.8388 | 0.01424 | 22.1057 | 214.2347 | 216.3816 | 13.66847 | – |
| 2026 Apr 22 17:57 | 2026 Apr 19 08:17:34 | 65.8388 | 0.01424 | 22.1057 | 214.2347 | 216.3816 | 13.66847 | – |
| 2026 Apr 21 17:57 | 2026 Apr 19 08:17:34 | 65.8388 | 0.01424 | 22.1057 | 214.2347 | 216.3816 | 13.66847 | – |
| 2026 Apr 20 17:57 | 2026 Apr 19 08:17:34 | 65.8388 | 0.01424 | 22.1057 | 214.2347 | 216.3816 | 13.66847 | – |
| 2026 Apr 19 17:58 | 2026 Apr 19 08:17:34 | 65.8388 | 0.01424 | 22.1057 | 214.2347 | 216.3816 | 13.66847 | – |
| 2026 Apr 18 17:56 | 2026 Apr 13 04:18:27 | 65.8396 | 0.01428 | 23.1075 | 217.1393 | 216.3816 | 13.66847 | – |
| 2026 Apr 16 17:57 | 2026 Apr 13 04:18:27 | 65.8396 | 0.01428 | 23.1075 | 217.1393 | 216.3816 | 13.66847 | – |
| 2026 Apr 14 17:57 | 2026 Apr 13 04:18:27 | 65.8396 | 0.01428 | 23.1075 | 217.1393 | 216.3816 | 13.66847 | – |
| 2026 Apr 13 17:57 | 2026 Apr 13 04:18:27 | 65.8396 | 0.01428 | 23.1075 | 217.1393 | 216.3816 | 13.66847 | – |
| 2026 Apr 12 17:57 | 2026 Apr 08 10:36:55 | 65.8403 | 0.01432 | 23.8770 | 219.3847 | 216.3816 | 13.66847 | – |
| 2026 Apr 11 17:57 | 2026 Apr 08 10:36:55 | 65.8403 | 0.01432 | 23.8770 | 219.3847 | 216.3816 | 13.66847 | – |
| 2026 Apr 10 17:58 | 2026 Apr 08 10:36:55 | 65.8403 | 0.01432 | 23.8770 | 219.3847 | 216.3816 | 13.66847 | – |
| 2026 Apr 09 18:01 | 2026 Apr 08 10:36:55 | 65.8403 | 0.01432 | 23.8770 | 219.3847 | 216.3816 | 13.66847 | – |
| 2026 Apr 08 17:57 | 2026 Apr 08 10:36:55 | 65.8403 | 0.01432 | 23.8770 | 219.3847 | 216.3816 | 13.66847 | – |
| 2026 Apr 07 17:57 | 2026 Apr 02 05:17:39 | 65.8403 | 0.01436 | 0.8878 | 222.3045 | 216.3816 | 13.66847 | – |
| 2026 Apr 06 17:57 | 2026 Apr 02 05:17:39 | 65.8403 | 0.01436 | 0.8878 | 222.3045 | 216.3816 | 13.66847 | – |